#timestamp,LO_Frequency,Hit,StdDev 
1621306815.7,286046996.4,N
1621306835.5,286046993.6,N
1621306855.4,286046995.0,N
1621306875.2,286046996.2,N
1621306895.0,286046993.6,N
1621306895.9,286046993.6,N
1621306915.8,286046996.3,N
1621306935.6,286046996.1,N
1621306955.5,286046999.1,N
1621306975.3,286047001.1,N
1621306995.1,286046999.5,N
1621307015.9,286046998.0,N
1621307035.7,286046997.2,N
1621307055.5,286046998.9,N
1621307075.4,286046999.1,N
1621307095.2,286046997.0,N
1621307115.1,286046998.6,N
1621307116.0,286046998.6,N
1621307135.8,286046998.2,N
1621307155.6,286046998.4,N
1621307175.5,286047002.3,N
1621307195.3,286047003.9,N
1621307215.2,286047004.7,N
1621307235.9,286047006.3,N
1621307255.7,286047007.2,N
1621307275.6,286047008.6,N
1621307295.4,286047009.0,N
1621307315.2,286047008.2,N
1621307335.1,286047006.4,N
1621307336.0,286047006.4,N
1621307355.8,286047008.2,N
1621307375.7,286047010.8,N
1621307425.5,286047006.4,E
1621307435.5,286047002.7,N
1621307455.3,286046999.1,P
1621307475.1,286046998.9,N
1621307495.9,286046999.4,N
1621307515.7,286046998.3,N
1621307535.5,286047002.7,N
1621307555.4,286046999.0,N
1621307575.2,286046999.6,N
1621307595.1,286046994.9,Y
1621307596.0,286046994.9,P
1621307615.8,286046999.6,N
1621307635.6,286047000.6,N
1621307655.5,286046998.5,N
1621307675.3,286047001.1,N
1621307695.1,286047002.2,N
1621307715.9,286047001.7,N
1621307735.7,286047000.6,N
1621307755.6,286047001.0,N
1621307775.4,286046998.5,N
1621307795.2,286046998.1,N
1621307815.1,286046998.2,N
1621307816.0,286046998.2,N
1621307835.8,286046998.0,N
1621307855.7,286046995.1,N
1621307875.5,286046995.1,N
1621307895.3,286046996.4,N
1621307915.2,286046992.1,Y
1621307935.0,286046993.3,P
1621307935.9,286046993.3,N
1621307955.7,286046993.6,N
1621307975.6,286046995.2,N
1621307995.4,286046996.9,N
1621308015.3,286047000.3,N
1621308035.1,286047001.7,N
1621308055.8,286047004.7,N
1621308075.7,286047007.1,N
1621308095.5,286047006.4,N
1621308115.4,286047010.4,N
1621308135.2,286047009.6,N
1621308155.0,286047009.5,N
1621308155.9,286047009.5,N
1621308175.8,286047009.9,N
1621308195.6,286047010.2,N
1621308215.4,286047006.4,N
1621308235.3,286047006.3,N
1621308255.1,286047006.8,N
1621308275.9,286047004.5,N
1621308295.7,286047004.9,N
1621308315.5,286047003.2,N
1621308335.4,286047005.4,N
1621308355.2,286047003.3,N
1621308375.0,286047002.0,N
1621308375.9,286047002.0,N
1621308395.8,286047007.2,N
1621308415.6,286047004.6,N
1621308435.5,286047008.6,N
1621308455.3,286047007.8,N
1621308475.1,286047008.4,N
1621308495.9,286047007.0,N
1621308515.7,286047008.9,N
1621308535.6,286047008.2,N
1621308555.4,286047011.9,Y
1621308575.2,286047004.7,P
1621308595.1,286047006.5,P
1621308596.0,286047006.5,P
1621308615.8,286047006.9,Y
1621308635.6,286047000.5,P
1621308655.5,286047002.8,N
1621308675.3,286047004.4,N
1621308695.2,286047001.3,N
1621308715.9,286047006.8,Y
1621308735.7,286047003.9,P
1621308755.6,286047006.5,P
1621308775.4,286047001.6,N
1621308795.3,286047004.3,N
1621308815.1,286047000.3,N
1621308816.0,286047000.3,N
1621308835.8,286047000.9,N
1621308855.7,286047002.4,N
1621308875.5,286047000.5,N
1621308895.3,286046998.9,N
1621308915.2,286047002.8,N
1621308935.0,286047002.7,N
1621308935.9,286047002.7,N
1621308955.8,286047001.4,N
1621308975.6,286047000.9,N
1621308995.4,286046998.7,N
1621309015.3,286046998.9,N
1621309035.1,286046996.6,N
1621309055.9,286046999.2,N
1621309075.7,286046997.8,N
1621309095.5,286046998.6,N
1621309115.4,286046999.5,N
1621309135.2,286046997.5,N
1621309155.0,286046995.9,N
1621309155.9,286046995.9,N
1621309175.8,286046996.0,N
1621309195.6,286046994.2,N
1621309215.5,286046992.6,N
1621309235.3,286046991.6,N
1621309255.1,286046986.9,Y
1621309275.9,286046990.4,P
1621309295.7,286046992.2,N
1621309315.5,286046990.8,N
1621309335.4,286046988.9,Y
1621309355.2,286046995.5,P
1621309375.1,286046996.6,P
1621309376.0,286046996.6,N
1621309395.8,286046998.5,N
1621309415.6,286046999.9,N
1621309435.5,286047001.8,N
1621309455.3,286047003.6,N
1621309475.2,286047006.4,N
1621309495.9,286047003.8,N
1621309515.7,286047004.0,N
1621309535.6,286047001.3,N
1621309555.4,286047001.9,N
1621309575.2,286047000.4,N
1621309595.1,286047002.1,N
1621309596.0,286047002.1,N
1621309615.8,286047000.7,N
1621309635.7,286046998.2,N
1621309655.5,286047001.5,N
1621309675.3,286046998.9,N
1621309695.2,286046997.1,N
1621309715.0,286046998.8,N
1621309715.9,286046998.8,N
1621309735.7,286046996.9,N
1621309755.6,286046995.4,N
1621309775.4,286046997.8,N
1621309795.3,286046994.9,N
1621309815.1,286046995.9,N
1621309816.0,286046995.9,N
1621309835.8,286046995.5,N
1621309855.7,286046999.0,N
1621309875.5,286046999.1,N
1621309895.4,286046995.4,N
1621309915.2,286046995.4,N
1621309935.0,286046997.5,N
1621309935.9,286046997.5,N
1621309955.8,286046997.8,N
1621309975.6,286046997.8,N
1621309995.4,286046997.9,N
1621310015.3,286046997.1,N
1621310035.1,286046997.3,N
1621310055.9,286046996.8,N
1621310075.7,286046996.8,N
1621310095.5,286046995.3,N
1621310115.4,286046997.3,N
1621310135.2,286046997.7,N
1621310155.1,286046998.4,N
1621310156.0,286046998.4,N
1621310175.8,286046998.8,N
1621310195.6,286046997.7,N
1621310215.5,286046995.1,Y
1621310235.3,286046998.5,P
1621310255.1,286047002.3,P
1621310275.9,286046999.0,N
1621310295.7,286047000.6,N
1621310315.6,286047000.4,N
1621310335.4,286046998.8,N
1621310355.2,286047001.1,N
1621310375.1,286047002.2,N
1621310376.0,286047002.2,N
1621310395.8,286047001.2,N
